Weather observations for the past three days for
Brady, Curtis Field Airport
Metric (Imperial)
Date Time (cdt) Wind (kph) Vis. (km) Weather Sky Cond. Temperature (ºC) Relative Humidity Wind Chill (°C) Heat Index (°C) Pressure Precipitation (cm)
Air Dwpt 6 hour altimeter (cm) sea level (mb) 1 hr 3 hr 6 hr
Max. Min.
04 19:15 S 24 G 35 16.09 Fair CLR 27 16 51% 27 75.59 0.0
04 18:55 S 26 G 37 16.09 Fair CLR 27 16 51% 27 75.59 0.0
04 18:35 S 22 G 35 16.09 Fair CLR 28 16 48% 28 75.59 0.0
04 18:15 S 24 G 39 16.09 Fair CLR 28 16 48% 28 75.59 0.0
04 17:55 S 28 G 37 16.09 Fair CLR 28 16 48% 28 75.59 0.0
04 17:35 S 28 16.09 Fair CLR 29 16 45% 29 75.62 0.0
04 17:15 S 26 G 46 16.09 Fair CLR 29 15 43% 29 75.62 0.0
04 16:55 S 28 G 43 16.09 Fair CLR 29 16 45% 29 75.62 0.0
04 16:35 S 22 G 37 16.09 Fair CLR 29 16 45% 29 75.67 0.0
04 16:15 SW 24 G 37 16.09 Fair CLR 28 16 48% 28 75.69 0.0
04 15:55 S 22 G 35 16.09 Fair CLR 28 16 48% 28 75.69 0.0
04 15:35 SW 24 G 35 16.09 Fair CLR 28 16 48% 28 75.72 0.0
04 15:15 S 22 G 33 16.09 Fair CLR 28 16 48% 28 75.77 0.0
04 14:55 S 20 G 35 16.09 Fair CLR 27 16 51% 27 75.79 0.0
04 14:35 S 24 16.09 Fair CLR 26 16 54% 27 75.82 0.0
04 14:15 S 26 G 41 16.09 Fair CLR 26 16 54% 27 75.84 0.0
04 13:55 S 28 16.09 Fair CLR 26 16 54% 27 75.84 0.0
04 13:35 SW 19 G 30 16.09 Fair CLR 26 16 54% 27 75.87 0.0
04 13:15 S 24 G 33 16.09 Fair CLR 25 15 54% 26 75.9 0.0
04 12:55 S 22 G 35 16.09 Fair CLR 24 15 57% 25 75.92 0.0
04 12:35 SW 28 G 41 16.09 Fair CLR 24 15 57% 25 75.95 0.0
04 12:15 SW 24 G 35 16.09 Fair CLR 24 15 57% 25 75.95 0.0
04 11:55 S 28 16.09 Fair CLR 23 15 61% 75.95 0.0
04 11:35 SW 30 16.09 Fair CLR 23 15 61% 75.95 0.0
04 11:15 S 33 G 46 16.09 Fair and Breezy CLR 23 15 61% 76 0.0
04 10:55 S 28 G 41 16.09 Fair CLR 22 15 65% 75.97 0.0
04 10:35 S 37 G 46 16.09 Fair and Breezy CLR 21 14 64% 75.97 0.0
04 10:15 S 24 G 39 16.09 Fair CLR 20 14 69% 76.02 0.0
04 09:55 S 33 G 44 16.09 Fair and Breezy CLR 20 14 69% 76 0.0
04 09:35 S 28 G 44 16.09 Fair CLR 19 14 73% 76 0.0
04 09:15 SW 30 G 43 16.09 Fair CLR 18 14 78% 76.02 0.0
04 08:55 S 31 G 43 16.09 Fair CLR 18 13 73% 76.02 0.0
04 08:35 S 26 16.09 Fair CLR 17 13 77% 76 0.0
04 08:15 S 17 G 30 16.09 Fair CLR 16 13 83% 76.02 0.0
04 07:55 S 17 16.09 Fair CLR 15 13 88% 76 0.0
04 07:35 S 15 16.09 Fair CLR 14 13 94% 76 0.0
04 07:15 S 11 16.09 Fair CLR 14 12 88% 75.97 0.0
04 06:55 S 13 16.09 Fair CLR 14 12 88% 75.97 0.0
04 06:35 S 13 16.09 Fair CLR 14 12 88% 76 0.0
04 06:15 S 15 16.09 Fair CLR 14 12 88% 75.97 0.0
04 05:55 S 13 16.09 Fair CLR 14 12 88% 75.97 0.0
04 05:35 S 15 16.09 Fair CLR 14 12 88% 75.97 0.0
04 05:15 S 15 16.09 Fair CLR 14 12 88% 76 0.0
04 04:55 S 17 16.09 Fair CLR 14 11 82% 76.02 0.0
04 04:35 S 15 G 26 16.09 Fair CLR 15 11 77% 76.02 0.0
04 04:15 S 19 16.09 Fair CLR 15 11 77% 76.05 0.0
04 03:55 S 13 16.09 Fair CLR 15 10 72% 76.05 0.0
04 03:35 S 13 16.09 Fair CLR 15 10 72% 76.07 0.0
04 03:15 SE 13 16.09 Fair CLR 15 10 72% 76.1 0.0
04 02:55 S 15 16.09 Fair CLR 15 9 68% 76.07 0.0
04 02:35 S 15 16.09 Fair CLR 15 9 68% 76.07 0.0
04 02:15 S 15 16.09 Fair CLR 15 9 68% 76.1 0.0
04 01:55 S 11 G 20 16.09 Fair CLR 15 9 68% 76.1 0.0
04 01:35 S 9 16.09 Fair CLR 15 9 68% 76.12 0.0
04 01:15 S 13 16.09 Fair CLR 15 9 68% 76.15 0.0
04 00:55 S 9 16.09 Fair CLR 16 9 63% 76.17 0.0
04 00:35 S 9 16.09 Fair CLR 16 9 63% 76.2 0.0
04 00:15 S 9 16.09 Fair CLR 16 9 63% 76.23 0.0
03 23:55 S 7 16.09 Fair CLR 17 8 56% 76.25 0.0
03 23:35 S 15 16.09 Fair CLR 17 8 56% 76.25 0.0
03 23:15 S 15 16.09 Fair CLR 17 8 56% 76.25 0.0
03 22:55 S 17 16.09 A Few Clouds FEW042 18 8 52% 76.25 0.0
03 22:35 S 15 16.09 A Few Clouds FEW038 FEW045 18 8 52% 76.25 0.0
03 22:15 S 15 16.09 Fair CLR 18 8 52% 76.25 0.0
03 21:55 S 13 16.09 Fair CLR 18 8 52% 76.25 0.0
03 21:35 S 15 16.09 Fair CLR 19 8 49% 76.25 0.0
03 21:15 S 15 16.09 Fair CLR 19 8 49% 76.25 0.0
03 20:55 S 11 16.09 Fair CLR 19 8 49% 76.23 0.0
03 20:35 S 11 16.09 Fair CLR 20 8 46% 76.23 0.0
03 20:15 SE 13 16.09 Fair CLR 20 8 46% 76.23 0.0
03 19:55 SE 13 16.09 Fair CLR 21 8 43% 76.2 0.0
03 19:35 SE 11 16.09 Fair CLR 21 8 43% 76.23 0.0
03 19:15 SE 11 16.09 Fair CLR 22 8 41% 76.23 0.0
03 18:55 SE 13 16.09 Fair CLR 22 7 38% 76.25 0.0
03 18:35 S 17 G 26 16.09 Fair CLR 23 7 36% 76.25 0.0
03 18:15 S 19 16.09 Fair CLR 23 7 36% 76.25 0.0
03 17:35 S 15 16.09 Fair CLR 23 7 36% 76.3 0.0
03 17:15 SE 19 G 30 16.09 Fair CLR 23 5 31% 76.28 0.0
03 16:55 S 30 16.09 Fair CLR 24 6 31% 25 76.3 0.0
03 16:35 S 20 G 31 16.09 Fair CLR 24 5 29% 25 76.35 0.0
03 16:15 S 22 G 33 16.09 Fair CLR 24 5 29% 25 76.35 0.0
03 15:55 S 17 16.09 Fair CLR 24 6 31% 25 76.4 0.0
03 15:35 S 17 G 28 16.09 Fair CLR 24 5 29% 25 76.43 0.0
03 15:15 S 20 16.09 Fair CLR 24 6 31% 25 76.45 0.0
03 14:55 S 20 16.09 Fair CLR 24 6 31% 25 76.48 0.0
03 14:35 S 20 G 30 16.09 Fair CLR 23 5 31% 76.5 0.0
03 14:15 S 20 G 33 16.09 Fair CLR 23 5 31% 76.53 0.0
03 13:55 S 17 G 26 16.09 Fair CLR 24 6 31% 25 76.56 0.0
03 13:35 S 19 16.09 Fair CLR 23 6 33% 76.58 0.0
03 13:15 S 15 G 28 16.09 Fair CLR 23 6 33% 76.61 0.0
03 12:55 S 15 G 28 16.09 Fair CLR 23 4 29% 76.63 0.0
03 12:35 S 20 16.09 Fair CLR 23 3 27% 76.66 0.0
03 12:15 S 19 G 30 16.09 Fair CLR 23 4 29% 76.68 0.0
03 11:55 S 17 G 31 16.09 Fair CLR 22 2 27% 76.71 0.0
03 11:35 S 22 16.09 Fair CLR 22 3 29% 76.71 0.0
03 11:15 S 17 G 33 16.09 Fair CLR 21 6 38% 76.73 0.0
03 10:55 S 19 16.09 Fair CLR 21 8 43% 76.76 0.0
03 10:35 SW 20 16.09 Fair CLR 20 7 43% 76.73 0.0
03 10:15 S 19 16.09 Fair CLR 20 8 46% 76.76 0.0
03 09:55 SW 15 16.09 Fair CLR 19 9 52% 76.73 0.0
03 09:35 SW 15 16.09 Fair CLR 18 9 56% 76.73 0.0
03 09:15 SW 11 16.09 Fair CLR 17 9 60% 76.73 0.0
03 08:55 SW 13 16.09 Fair CLR 16 9 63% 76.73 0.0
03 08:35 SW 11 16.09 Fair CLR 15 9 68% 76.71 0.0
03 08:15 SW 9 16.09 Fair CLR 14 9 72% 76.68 0.0
03 07:55 W 7 16.09 Fair CLR 12 9 82% 76.68 0.0
03 07:35 SW 9 16.09 Fair CLR 11 8 82% 76.68 0.0
03 07:15 W 9 16.09 Fair CLR 10 7 82% 9 76.66 0.0
03 06:55 SW 9 16.09 Fair CLR 10 7 82% 9 76.66 0.0
03 06:35 SW 7 16.09 Fair CLR 11 7 77% 76.63 0.0
03 06:15 SW 9 16.09 Fair CLR 11 7 77% 76.63 0.0
03 05:55 SW 9 16.09 Fair CLR 11 7 77% 76.63 0.0
03 05:35 SW 11 16.09 Fair CLR 11 7 77% 76.63 0.0
03 05:15 SW 13 16.09 Fair CLR 11 7 77% 76.63 0.0
03 04:55 SW 9 16.09 Fair CLR 11 7 77% 76.63 0.0
03 04:35 SW 7 16.09 Fair CLR 12 7 72% 76.63 0.0
03 04:15 W 6 16.09 Fair CLR 11 8 82% 76.63 0.0
03 03:55 W 11 16.09 Fair CLR 11 8 82% 76.61 0.0 0.03
03 03:35 SW 7 16.09 Fair CLR 12 7 72% 76.61 0.0
03 03:15 SW 7 16.09 Fair CLR 12 7 72% 76.63 0.0
03 02:55 SW 7 16.09 Fair CLR 12 7 72% 76.63 0.0
03 02:35 SW 6 16.09 A Few Clouds FEW050 FEW060 12 7 72% 76.63 0.0
03 02:15 Calm 16.09 A Few Clouds FEW050 FEW060 13 7 67% 76.63 0.0
03 01:55 Calm 16.09 A Few Clouds FEW050 FEW055 13 8 72% 76.66 0.0
03 01:35 Calm 16.09 A Few Clouds FEW050 FEW055 13 7 67% 76.66 0.0
03 01:15 SW 6 16.09 A Few Clouds FEW050 FEW055 13 7 67% 76.66 0.0
03 00:55 Calm 16.09 A Few Clouds FEW050 14 7 63% 76.68 0.0
03 00:35 SW 7 16.09 Fair CLR 14 7 63% 76.68 0.0
03 00:15 SW 7 16.09 Fair CLR 14 7 63% 76.66 0.0
02 23:55 Calm 16.09 Fair CLR 14 8 67% 76.66 0.0
02 23:35 SW 6 16.09 A Few Clouds FEW055 13 8 72% 76.68 0.0
02 23:15 Calm 16.09 A Few Clouds FEW055 15 7 59% 76.68 0.0
02 22:55 Calm 16.09 A Few Clouds FEW050 16 7 55% 76.66 0.0
02 22:35 S 7 16.09 A Few Clouds FEW048 FEW055 17 7 52% 76.63 0.0
02 22:15 Calm 16.09 Partly Cloudy FEW048 SCT055 16 7 55% 76.63 0.0
02 21:55 SE 6 16.09 A Few Clouds FEW060 17 7 52% 76.63 0.0
02 21:35 S 7 16.09 Fair CLR 17 7 52% 76.61 0.0
02 21:15 S 9 16.09 A Few Clouds FEW050 18 6 46% 76.58 0.0
02 20:55 S 7 16.09 A Few Clouds FEW050 18 6 46% 76.58 0.0
02 20:35 SE 6 16.09 Fair CLR 18 7 49% 76.56 0.0
02 20:15 Calm 16.09 Fair CLR 19 7 46% 76.56 0.0
02 19:55 SE 6 16.09 Fair CLR 20 5 38% 76.53 0.0
02 19:35 Calm 16.09 Fair CLR 21 5 35% 76.53 0.0
02 19:15 Calm 16.09 Fair CLR 21 3 31% 76.53 0.0
02 18:55 Calm 16.09 A Few Clouds FEW070 21 5 35% 76.53 0.0
02 18:35 NE 7 16.09 Partly Cloudy SCT070 21 4 33% 76.56 0.0
02 18:15 NE 9 16.09 A Few Clouds FEW070 21 5 35% 76.56 0.0
02 17:55 N 9 16.09 Fair CLR 21 5 35% 76.56 0.0
02 17:35 Calm 16.09 A Few Clouds FEW065 20 5 38% 76.56 0.0
02 17:15 NE 9 16.09 Partly Cloudy SCT065 21 7 40% 76.56 0.0
02 16:55 N 9 G 20 16.09 Mostly Cloudy BKN065 21 6 38% 76.56 0.0
02 16:35 SE 6 16.09 Mostly Cloudy BKN065 21 4 33% 76.58 0.0
02 16:15 Vrbl 9 16.09 Partly Cloudy SCT065 22 5 33% 76.58 0.0
02 15:55 Vrbl 6 16.09 Partly Cloudy SCT060 21 5 35% 76.61 0.0
02 15:35 Vrbl 9 16.09 Fair CLR 21 5 35% 76.63 0.0
02 15:15 E 9 16.09 Fair CLR 21 6 38% 76.66 0.0
02 14:35 E 9 16.09 A Few Clouds FEW060 21 5 35% 76.68 0.0
02 14:15 Vrbl 11 16.09 Fair CLR 20 4 35% 76.68 0.0
02 13:55 Vrbl 9 16.09 A Few Clouds FEW055 20 7 43% 76.71 0.0
02 13:35 N 20 16.09 Fair CLR 20 6 40% 76.71 0.0
02 13:15 NE 11 G 22 16.09 Fair CLR 19 5 40% 76.71 0.0
02 12:55 Calm 16.09 Fair CLR 19 5 40% 76.73 0.0
02 12:35 NE 9 G 20 16.09 Fair CLR 19 6 43% 76.76 0.0
02 12:15 N 17 16.09 Fair CLR 18 6 46% 76.78 0.0
02 11:55 N 7 16.09 Fair CLR 18 8 52% 76.78 0.0
02 11:35 N 13 16.09 Fair CLR 17 8 56% 76.78 0.0
02 11:15 N 15 16.09 Fair CLR 17 8 56% 76.81 0.0
02 10:55 N 17 16.09 Fair CLR 17 8 56% 76.78 0.0
02 10:35 NW 19 16.09 Fair CLR 16 8 59% 76.78 0.0
02 10:15 NW 11 16.09 Fair CLR 15 8 63% 76.78 0.0
02 09:55 NW 13 16.09 Fair CLR 15 8 63% 76.78 0.0
02 09:35 NW 13 16.09 Fair CLR 14 9 72% 76.76 0.0
02 09:15 NW 11 16.09 Fair CLR 13 10 82% 76.76 0.0
02 08:55 NW 9 16.09 Fair CLR 12 10 88% 76.76 0.0
02 08:35 NW 7 16.09 Fair CLR 10 9 94% 9 76.76 0.0
02 08:15 Calm 16.09 Fair CLR 9 9 100% 76.73 0.0
02 07:55 Calm 16.09 Fair CLR 9 8 94% 76.71 0.0
02 07:35 NW 6 16.09 Fair CLR 8 7 93% 76.68 0.0
02 07:15 W 7 16.09 Fair CLR 7 7 100% 6 76.66 0.0
02 06:55 W 7 16.09 Partly Cloudy SCT100 7 7 100% 6 76.63 0.0
02 06:35 Calm 16.09 Overcast OVC100 8 7 93% 76.63 0.0
02 06:15 NW 6 16.09 Mostly Cloudy BKN100 7 7 100% 76.61 0.0
02 05:55 N 13 16.09 Fair CLR 7 7 100% 5 76.58 0.0
02 05:35 N 15 16.09 Fair CLR 8 7 93% 6 76.56 0.0
02 05:15 NW 11 16.09 Fair CLR 7 7 100% 5 76.53 0.0
02 04:55 NW 13 16.09 A Few Clouds FEW047 7 7 100% 5 76.5 0.0
02 04:35 NW 11 16.09 A Few Clouds FEW044 FEW050 7 7 100% 5 76.5 0.0
02 04:15 N 13 16.09 A Few Clouds FEW043 7 7 100% 5 76.48 0.0
02 03:55 N 9 16.09 A Few Clouds FEW044 7 7 100% 5 76.48 0.0
02 03:35 N 9 16.09 A Few Clouds FEW043 7 7 100% 5 76.48 0.0
02 03:15 N 13 16.09 A Few Clouds FEW046 8 7 93% 6 76.48 0.0
02 02:55 N 11 16.09 A Few Clouds FEW045 8 7 93% 6 76.5 0.0
02 02:35 N 13 16.09 Partly Cloudy SCT046 8 7 93% 6 76.5 0.0
02 02:15 N 13 16.09 Partly Cloudy SCT047 8 7 93% 6 76.5 0.0
02 01:55 N 11 16.09 Mostly Cloudy SCT044 BKN050 9 8 94% 8 76.5 0.0
02 01:35 N 11 16.09 Mostly Cloudy BKN045 8 8 100% 6 76.53 0.0
02 01:15 N 7 16.09 Partly Cloudy SCT045 8 8 100% 7 76.53 0.0
02 00:55 N 13 16.09 A Few Clouds FEW046 8 8 100% 6 76.53 0.0
02 00:35 N 11 16.09 Fair CLR 9 8 94% 8 76.5 0.0
02 00:15 N 9 16.09 Fair CLR 9 8 94% 8 76.48 0.0
01 23:55 N 13 16.09 Fair CLR 9 9 100% 7 76.48 0.0
01 23:35 N 15 16.09 Fair CLR 10 9 94% 8 76.48 0.0
01 23:15 N 13 16.09 Fair CLR 9 9 100% 7 76.48 0.0
01 22:55 N 9 16.09 Fair CLR 9 8 94% 8 76.48 0.0
01 22:35 N 11 16.09 A Few Clouds FEW035 9 8 94% 8 76.48 0.0
01 22:15 N 9 16.09 Fair CLR 10 9 94% 9 76.45 0.0
01 21:55 N 9 16.09 Mostly Cloudy BKN100 11 9 88% 76.43 0.0
01 21:35 N 9 16.09 Mostly Cloudy BKN100 11 9 88% 76.43 0.0
01 21:15 N 9 16.09 A Few Clouds FEW032 FEW037 FEW049 11 9 88% 76.4 0.0
01 20:35 NE 11 16.09 Overcast OVC048 12 9 82% 76.35 0.0
01 20:15 NE 13 16.09 Overcast OVC046 13 9 77% 76.33 0.0
01 19:55 NE 15 16.09 Overcast OVC042 13 10 82% 76.33 0.0
Date Time (cdt) Wind (kph) Vis. (km) Weather Sky Cond. Air Dwpt Max. Min. Relative Humidity Wind Chill (°C) Heat Index (°C) altimeter (cm) sea level (mb) 1 hr 3 hr 6 hr
6 hour
Temperature (ºC) Pressure Precipitation (cm)